Weather Roundup
Issued by NWS Chicago, IL

Home | Current Version | Previous Version | Graphics & Text | Print | Product List | Glossary On
Versions: 1 2 3 4 5 6 7 8 9 10 11 12 13 14 15 16 17 18 19 20 21 22 23 24 25 26 27 28 29 30 31 32 33 34 35 36 37 38 39 40 41 42 43 44 45 46 47 48 49 50
000
NZUS59 KLOT 032212
HRRLOT

CHICAGO AREA WEATHER ROUNDUP
NATIONAL WEATHER SERVICE CHICAGO/ROMEOVILLE IL
500 PM CDT FRI JUL 03 2015

NOTE: "FAIR" INDICATES FEW OR NO CLOUDS BELOW 12,000 FEET WITH NO
SIGNIFICANT WEATHER AND/OR OBSTRUCTIONS TO VISIBILITY.

* THESE STATIONS ARE NOT UNDER NWS QUALITY CONTROL. THEY ALSO MAY NOT
  REPORT WEATHER SUCH AS PRECIPITATION OR FOG.

ILZ005-006-012>014-019>023-032300-
NORTHEAST ILLINOIS

CITY           SKY/WX    TMP DP  RH WIND       PRES   REMARKS
OHARE          PTSUNNY   75  53  46 E8        29.92F
MIDWAY         MOSUNNY   76  53  44 E8        29.92F
AURORA         MOSUNNY   77  56  48 W5        29.93F
LANSING*       SUNNY     73  52  48 E6        29.93F
JOLIET*        SUNNY     78  58  51 CALM      29.92S
WAUKEGAN       SUNNY     70  54  56 E6        29.93F
DUPAGE AIRPORT MOSUNNY   78  55  44 N3        29.92F
WHEELING       SUNNY     74  53  48 E9        29.94F
KANKAKEE*      MOSUNNY   77  59  53 N6        29.92F
MORRIS*        SUNNY     77  55  45 CALM      29.91F
LEWIS AIRPORT* SUNNY     76  54  46 CALM      29.92S
NORTHERLY IS     N/A     67  58  72 N3          N/A
$$

WIZ051-052-058>065-066-070>072-032300-
SOUTHEAST WISCONSIN

CITY           SKY/WX    TMP DP  RH WIND       PRES   REMARKS
MILWAUKEE      PTSUNNY   69  52  54 E9        29.94F
KENOSHA*       SUNNY     72  53  51 E7        29.94F
RACINE*        SUNNY     69  54  58 E8        29.96S
BURLINGTON     SUNNY     73  55  52 CALM      29.93F
WAUKESHA       MOSUNNY   73  54  49 W6        29.94F
WEST BEND      MOSUNNY   72  50  46 SE6       29.93F
$$

INZ001>003-010>013-019-020-032300-
NORTHWEST INDIANA

CITY           SKY/WX    TMP DP  RH WIND       PRES   REMARKS
GARY*          PTSUNNY   72  57  60 N9        29.94F
MICHIGAN CITY* NOT AVBL
RENSSELAER*    NOT AVBL
VALPARAISO     MOSUNNY   74  59  59 N7        29.93F
$$

LMZ740>746-032300-
SOUTHERN LAKE MICHIGAN

STATION/POSITION TIME  SKY/WX   TEMP WIND        PRES    VSBY
                                AIR  DIR/SP/G
                 (UTC)          (F)  (DEG/KT/KT) (MB)    (MI)
HARRISON CRIB    2100            62   40/  7/  8   N/A
BURNHAM HARBOR   2200            66   40/  5/  7   N/A
CALUMET HARBOR   2100            67   20/  6/  8   N/A
BURNS HARBOR     2100            65   40/  8/  9 1014.6F
MICHIGAN CITY    2100            63   10/  4/  4   N/A
$$

ABBREVIATIONS USED IN REMARKS
   TC - TEMPERATURE IN CELSIUS
  WCI - WIND CHILL INDEX
   HX - HEAT INDEX
  VSB - VISIBILITY
$$



USA.gov is the U.S. government's official web portal to all federal, state and local government web resources and services.